Tracking 23762 objects as of 22-Oct-2021
HD Live streaming from Space Station
objects crossing your sky now

CZ-3C DEB

Track CZ-3C DEB now!


NORAD ID: 40202
Int'l Code: 2012-008M
Perigee: 464.2 km
Apogee: 34,752.8 km
Inclination: 19.8 °
Period: 615.9 minutes
Semi major axis: 23979 km
RCS: Unknown
Launch date: February 24, 2012
Source: People's Republic of China (PRC)
Launch site: Xichang Space Center, China (XSC)

Note: This is SATELLITE DEBRIS
aabbcc
Your satellite tracking list
Your tracking list is empty




NASA's NSSDC Master Catalog

Two Line Element Set (TLE):
1 40202U 12008M   21292.57945304  .00000664  00000-0  34653-2 0  9991
2 40202  19.8046 129.2354 7149576  91.9241 343.7289  2.33799431 70913
Source of the keplerian elements: AFSPC